Location: Wildlife_Club
(35.6000°N, 81.4330°W)
Time: 08:14:11
(UTC-04:00)

A-11 Canister half - Pass Details

Date: 27 June 2019
Orbit: 1514 x 1685 km, 47.2° (Epoch: 22 July)

Event Time Altitude Azimuth Distance (km) Brightness Sun altitude
Rises 13:33:33 0° 285° (WNW) 4,890 11.6 77.7°
Reaches altitude 10° 13:37:02 10° 293° (WNW) 3,882 11.2 77.6°
Maximum altitude 13:46:16 42° 2° (N) 2,167 10.3 77.1°
Drops below altitude 10° 13:55:11 10° 71° (ENE) 3,753 11.1 76.4°
Sets 13:58:29 0° 78° (ENE) 4,715 11.5 76.1°
